Home > Weather > Charlotte > Past weeks

Flag for USA Weather for the Past 2 Weeks in Charlotte, North Carolina, USA

Now
82 °F

Partly sunny.


Feels Like: 81 °F
Forecast: 61 / 82 °F
Wind: 6 mph from Southwest

Location: Charlotte / Douglas International Airport

Current Time: Apr 29, 2016 at 8:18:52 PM

Latest Report: Apr 29, 2016 at 6:52 PM


Visibility: 10 mi

Pressure: 29.91 "Hg

Humidity: 37%

Dew Point: 53 °F

Location of CharlotteLocation

Historic Weather in Charlotte — Graph

°F

Charlotte Temperature Yesterday

Maximum temperature yesterday: 85 °F (at 2:52 PM)
Minimum temperature yesterday: 66 °F (at 5:52 AM)
Average temperature yesterday: 75 °F

High & Low Weather Summary for the Past Weeks

 TemperatureHumidityPressure
High87 °F (Apr 19, 1:52 PM)96% (Apr 23, 3:52 AM)30.44 "Hg (Apr 23, 3:52 AM)
Low38 °F (Apr 18, 5:52 AM)14% (Apr 18, 5:52 PM)29.78 "Hg (Apr 27, 6:52 PM)
Average67 °F53%30.08 "Hg
* Reported Apr 14 5:52 PM — Apr 29 5:52 PM, Charlotte, Weather by CustomWeather, © 2016

Note: Actual official high and low records may vary slightly from our data, if they occured in-between our weather recording intervals... More about our weather records

Advertising

Charlotte Weather History for the Previous 24 Hours

Scroll right to see more
 ConditionsComfort  
Time TempWeatherWind HumidityBarometerVisibility
5:52 PM
Fri, Apr 29
83 °FPartly sunny.8 mph32%29.91 "Hg10 mi
4:52 PM84 °FPartly sunny.9 mph32%29.91 "Hg10 mi
3:52 PM85 °FPartly sunny.6 mph30%29.92 "Hg10 mi
2:52 PM86 °FScattered clouds.5 mph30%29.95 "Hg10 mi
1:52 PM82 °FPartly sunny.3 mph34%29.95 "Hg10 mi
12:52 PM82 °FPartly sunny.7 mph35%29.97 "Hg10 mi
11:52 AM80 °FScattered clouds.No wind42%29.97 "Hg10 mi
10:52 AM76 °FScattered clouds.6 mph52%29.98 "Hg10 mi
9:52 AM73 °FPassing clouds.5 mph64%29.99 "Hg10 mi
8:52 AM69 °FScattered clouds.No wind76%30.00 "Hg10 mi
7:52 AM64 °FPartly sunny.7 mph87%30.00 "Hg10 mi
6:52 AM63 °FLow clouds.6 mph90%29.98 "Hg10 mi
5:52 AM63 °FPassing clouds.3 mph90%29.94 "Hg10 mi
4:52 AM65 °FClear.8 mph85%29.93 "Hg10 mi
3:52 AM62 °FClear.5 mph80%29.91 "Hg10 mi
2:52 AM65 °FClear.5 mph73%29.88 "Hg10 mi
1:52 AM66 °FClear.3 mph73%29.88 "Hg10 mi
12:52 AM66 °FClear.5 mph73%29.88 "Hg10 mi
11:52 PM
Thu, Apr 28
68 °FClear.5 mph70%29.87 "Hg10 mi
10:52 PM70 °FClear.5 mph71%29.87 "Hg10 mi
9:52 PM74 °FClear.3 mph62%29.86 "Hg10 mi
8:52 PM76 °FScattered clouds.5 mph58%29.85 "Hg10 mi
Weather by CustomWeather, © 2016

See weather overviewHow to use our weather pages